Weather History for KSLE - November, 2012

Change the Weather History Date:

Monday, November 5, 2012

  Actual Average Record
Temperature  
Mean Temperature 57 °F 48 °F  
Max Temperature 63 °F 56 °F 69 °F (1960)
Min Temperature 51 °F 40 °F 20 °F (1935)
Degree Days  
Heating Degree Days 8 17  
Month to date heating degree days 37 83  
Since 1 July heating degree days 437 615  
Cooling Degree Days 0 0  
Month to date cooling degree days 0 0  
Year to date cooling degree days 317 290  
Growing Degree Days 7 (Base 50)    
Moisture  
Dew Point 56 °F    
Average Humidity 86    
Maximum Humidity 100    
Minimum Humidity 72    
Precipitation  
Precipitation T in 0.18 in 1.05 in (1999)
Month to date precipitation 0.63 0.85  
Year to date precipitation 38.71 27.16  
Snow  
Snow 0.00 in - - ()
Month to date snowfall 0.0  
Snow Depth 0.00 in    
Sea Level Pressure  
Sea Level Pressure 30.26 in    
Wind  
Wind Speed 3 mph (North)    
Max Wind Speed 12 mph    
Max Gust Speed 14 mph    
Visibility 9 miles    
Events Rain    
T = Trace of Precipitation, MM = Missing Value Source: NWS Daily Summary

Daily Weather History Graph

Daily Weather History Graph

Search for Another Location

Airport or City:

Trip Planner

Search our weather history database for the weather conditions in past years. The results will help you decide how hot, cold, wet, or windy it might be!

Date:

Astronomy

Nov. 05, 2012 Rise Set
Actual Time 6:56 AM PST 4:54 PM PST
Civil Twilight 6:25 AM PST 5:24 PM PST
Nautical Twilight 5:50 AM PST 5:59 PM PST
Astronomical Twilight 5:16 AM PST 6:34 PM PST
Moon 10:37 PM PST (11/5) 12:19 PM PST (11/5)
Length of Visible Light 10h 59m
Length of Day
9h 57m
Waning Gibbous, 62% of the Moon is Illuminated
Nov 5
Waning Gibbous
Nov 6
Last Quarter
Nov 13
New
Nov 20
First Quarter
Nov 28
Full

Hourly Weather History & Observations

Time (PST) Temp. Dew Point Humidity Pressure Visibility Wind Dir Wind Speed Gust Speed Precip Events Conditions
12:56 AM 60.1 °F 57.9 °F 93% 30.34 in 10.0 mi SSE 4.6 mph - N/A   Overcast
1:56 AM 59.0 °F 57.0 °F 93% 30.33 in 10.0 mi SE 4.6 mph - N/A   Scattered Clouds
2:53 AM 60.8 °F 57.2 °F 88% 30.32 in 10.0 mi Calm Calm - N/A   Overcast
2:56 AM 60.1 °F 57.9 °F 93% 30.32 in 10.0 mi Calm Calm - N/A   Overcast
3:53 AM 59.0 °F 57.2 °F 94% 30.33 in 10.0 mi SSW 3.5 mph - N/A   Overcast
3:56 AM 59.0 °F 57.9 °F 96% 30.32 in 10.0 mi Calm Calm - N/A   Overcast
4:16 AM 60.8 °F 57.2 °F 88% 30.33 in 10.0 mi Calm Calm - N/A   Overcast
4:25 AM 59.0 °F 57.2 °F 94% 30.33 in 10.0 mi Calm Calm - N/A   Overcast
4:39 AM 59.0 °F 57.2 °F 94% 30.33 in 10.0 mi Calm Calm - N/A   Overcast
4:56 AM 57.9 °F 57.9 °F 100% 30.33 in 10.0 mi Calm Calm - N/A   Overcast
5:13 AM 59.0 °F 57.2 °F 94% 30.33 in 10.0 mi Calm Calm - N/A   Overcast
5:56 AM 59.0 °F 57.9 °F 96% 30.33 in 10.0 mi Calm Calm - N/A   Overcast
6:23 AM 59.0 °F 57.2 °F 94% 30.33 in 10.0 mi Calm Calm - N/A   Overcast
6:56 AM 59.0 °F 57.9 °F 96% 30.33 in 10.0 mi Calm Calm - N/A   Overcast
7:07 AM 59.0 °F 57.2 °F 94% 30.33 in 10.0 mi Calm Calm - N/A   Overcast
7:56 AM 59.0 °F 57.9 °F 96% 30.33 in 10.0 mi Calm Calm - N/A   Overcast
8:56 AM 61.0 °F 57.9 °F 90% 30.32 in 10.0 mi Calm Calm - N/A   Overcast
9:37 AM 59.0 °F 57.2 °F 94% 30.32 in 1.8 mi NNE 9.2 mph - 0.00 in Rain Light Rain
9:52 AM 59.0 °F 57.2 °F 94% 30.32 in 2.0 mi NNE 5.8 mph - 0.00 in Rain Light Rain
9:56 AM 59.0 °F 57.9 °F 96% 30.32 in 2.0 mi NE 9.2 mph - 0.00 in   Overcast
10:56 AM 59.0 °F 57.9 °F 96% 30.32 in 2.0 mi NNE 6.9 mph - N/A   Overcast
11:19 AM 59.0 °F 57.2 °F 94% 30.31 in 10.0 mi NNE 8.1 mph - N/A   Overcast
11:56 AM 60.1 °F 57.0 °F 90% 30.30 in 10.0 mi NNE 8.1 mph - N/A   Overcast
12:37 PM 60.8 °F 57.2 °F 88% 30.29 in 10.0 mi North 8.1 mph - N/A   Overcast
12:56 PM 61.0 °F 57.0 °F 87% 30.28 in 10.0 mi North 9.2 mph - N/A   Overcast
1:56 PM 62.1 °F 57.0 °F 84% 30.26 in 10.0 mi North 5.8 mph - N/A   Overcast
2:56 PM 62.1 °F 55.9 °F 80% 30.25 in 10.0 mi North 9.2 mph - N/A   Overcast
3:29 PM 60.8 °F 55.4 °F 82% 30.24 in 10.0 mi NNE 6.9 mph - N/A   Scattered Clouds
3:56 PM 62.1 °F 54.0 °F 75% 30.23 in 10.0 mi NNE 6.9 mph - N/A   Clear
4:56 PM 57.9 °F 53.1 °F 84% 30.22 in 10.0 mi NNW 5.8 mph - N/A   Mostly Cloudy
5:03 PM 57.2 °F 51.8 °F 82% 30.21 in 10.0 mi NNW 6.9 mph - N/A   Mostly Cloudy
5:24 PM 57.2 °F 51.8 °F 82% 30.21 in 10.0 mi NW 3.5 mph - N/A   Scattered Clouds
5:56 PM 57.0 °F 53.1 °F 87% 30.21 in 10.0 mi Calm Calm - N/A   Partly Cloudy
6:56 PM 53.1 °F 52.0 °F 96% 30.20 in 10.0 mi Calm Calm - N/A   Partly Cloudy
7:54 PM 53.6 °F 51.8 °F 94% 30.18 in 9.0 mi Calm Calm - N/A   Mostly Cloudy
7:56 PM 53.1 °F 52.0 °F 96% 30.18 in 7.0 mi Calm Calm - N/A   Mostly Cloudy
8:17 PM 51.8 °F 51.8 °F 100% 30.18 in 6.0 mi Calm Calm - N/A   Scattered Clouds
8:36 PM 51.8 °F 51.8 °F 100% 30.18 in 4.0 mi Calm Calm - N/A   Mostly Cloudy
8:56 PM 52.0 °F 52.0 °F 100% 30.17 in 10.0 mi Calm Calm - N/A   Overcast
9:42 PM 53.6 °F 53.6 °F 100% 30.16 in 10.0 mi Calm Calm - N/A   Overcast
9:56 PM 54.0 °F 53.1 °F 97% 30.16 in 10.0 mi Calm Calm - N/A   Overcast
10:56 PM 55.0 °F 54.0 °F 96% 30.14 in 10.0 mi Calm Calm - N/A   Overcast
11:24 PM 55.4 °F 55.4 °F 100% 30.13 in 10.0 mi Calm Calm - N/A   Overcast
11:56 PM 55.9 °F 54.0 °F 93% 30.12 in 10.0 mi Calm Calm - N/A   Overcast